Location: De Jouwer
(53.2066°N, 6.3038°E)
Time: 23:04:30
(UTC+00:00)

Daily predictions for brighter satellites

Satellite Brightness Start Highest point End
(mag) Time Altitude Azimuth Time Altitude Azimuth Time Altitude Azimuth
Cosmos 1741 Rocket 4.3 17:29:07 10° S 17:34:07 46° ESE 17:39:08 10° NE
Cosmos 1626 3.3 17:31:35 10° NNW 17:35:07 48° W 17:38:36 10° S
Cosmos 1814 Rocket 4.1 17:30:19 10° NNW 17:35:34 61° ENE 17:40:42 10° SE
SL-4 R/B 3.0 17:32:15 10° W 17:36:27 48° SSW 17:40:53 10° SE
USA 267 3.7 17:30:52 10° SE 17:37:24 67° SSW 17:43:57 10° WNW
Cosmos 2084 Rocket 3.6 17:35:16 10° NW 17:38:59 47° NNE 17:42:46 10° ESE
Cosmos 2227 4.2 17:35:42 10° NNW 17:41:21 68° NE 17:46:57 10° SE
Cosmos 1805 3.3 17:39:07 10° S 17:42:55 56° E 17:46:44 10° NNE
Cosmos 1242 Rocket 2.4 17:40:35 10° S 17:44:08 72° ESE 17:47:40 10° NNE
ISS -1.3 17:43:37 10° W 17:46:07 19° SSW 17:48:35 10° SSE
Cosmos 2360 4.5 17:41:07 10° SW 17:46:51 77° WNW 17:52:36 10° NNE
Okean-O 4.1 17:43:46 10° ESE 17:46:55 19° ENE 17:50:05 10° NNE
SL-08 R/B 4.3 17:42:20 10° N 17:47:08 54° WNW 17:51:57 10° SW
Okean 2 4.3 17:44:10 10° NNW 17:48:15 54° W 17:52:17 10° S
Cosmos 1697 Rocket 3.0 17:43:28 10° SW 17:49:04 73° WNW 17:54:45 10° NNE
CZ-4 R/B 2.0 17:45:33 10° SE 17:49:27 39° ENE 17:53:21 10° N
SL-14 R/B 3.3 17:48:26 10° NNW 17:52:26 89° WSW 17:56:26 10° S
Cosmos 1908 Rocket 4.2 17:50:52 10° SSE 17:54:41 31° E 17:58:31 10° NNE
OBJECT-B 2.1 17:54:14 12° E 17:55:12 15° ENE 17:56:44 10° NNE
MOS 1-B 4.4 17:49:46 10° SSE 17:55:35 82° ENE 18:01:27 10° NNW
Cosmos 1733 3.1 17:52:39 10° S 17:56:24 85° E 18:00:10 10° NNE
Cosmos 2360 Rocket 3.8 17:54:35 10° ESE 17:56:57 13° E 17:59:18 10° ENE
MINOTAUR 4 R/B 4.1 17:54:46 10° NNE 17:58:16 83° WNW 18:01:45 10° SSW
Cosmos 1809 Rocket 4.4 17:53:53 10° S 17:59:54 69° E 18:05:59 10° NNE
Cosmos 1674 Rocket 3.6 17:57:12 10° NNW 18:01:38 89° W 18:06:04 10° S
Cosmos 1766 3.5 17:59:01 10° SSE 18:02:47 46° E 18:06:35 10° NNE
NOSS 7 (E) 4.4 18:00:22 10° NW 18:03:30 83° SW 18:07:19 10° SE
Cosmos 1025 Rocket 4.0 18:00:27 10° N 18:04:11 28° ENE 18:07:54 10° SE
Meteor 2-10 4.1 17:58:50 10° S 18:04:24 73° E 18:09:50 10° NNE
ATLAS 2AS CENTAUR R/B 3.9 18:00:00 10° WNW 18:06:55 37° N 18:13:27 10° ENE
YAOGAN 1 2.5 18:03:22 10° SSE 18:07:40 78° ENE 18:12:01 10° NNW
Cosmos 968 Rocket 4.1 18:04:43 10° SSE 18:09:26 35° ESE 18:14:10 10° NE
Okean O Rocket 1.5 18:07:10 10° SSE 18:11:31 72° ENE 18:15:55 10° NNW
SKYMED 2 3.8 18:08:13 10° NNE 18:12:34 75° WNW 18:16:54 10° SSW
Cosmos 2084 3.6 18:09:35 10° WSW 18:13:23 63° NW 18:17:13 10° NE
IRIDIUM 106 4.3 18:08:16 10° S 18:13:25 64° E 18:18:36 10° N
Meteor 2-5 Rocket 3.8 18:08:26 10° N 18:13:55 57° ENE 18:19:20 10° SSE
Lacrosse 4 Rocket 2.9 18:11:41 10° SE 18:13:56 16° ESE 18:13:56 16° ESE
Nadezhda 4 Rocket 4.0 18:10:36 10° S 18:16:50 64° E 18:23:04 10° NNE
Meteor 1-15 Rocket 4.3 18:13:12 10° SSE 18:18:32 50° E 18:23:54 10° NNE
CSL-04 Rocket 4.1 18:13:52 10° SE 18:18:53 42° ENE 18:23:59 10° N
NOSS 3-4 (A) 4.3 18:12:59 10° NW 18:19:07 43° NNE 18:24:38 16° E
NOSS 3-4 (C) 4.3 18:13:05 10° NW 18:19:13 43° NNE 18:24:44 16° E
Cosmos 2285 Rocket 4.2 18:14:03 10° NNW 18:20:26 81° WSW 18:26:49 10° SSE
USA 186 2.5 18:22:41 19° ESE 18:24:34 35° ENE 18:27:41 10° N
Cosmos 1726 2.2 18:21:16 10° SSW 18:24:55 80° WNW 18:28:36 10° N
Cosmos 2322 Rocket 2.9 18:20:27 10° SSE 18:25:18 30° ESE 18:30:11 10° NE
Cosmos 1378 Rocket 4.5 18:23:53 10° NNW 18:28:09 51° W 18:32:21 10° S
Cosmos 1975 Rocket 3.3 18:25:06 10° N 18:29:23 47° ENE 18:33:08 13° SE
Cosmos 1470 3.1 18:26:02 10° SSE 18:29:37 38° E 18:33:12 10° NNE
ARGOS Delta rocket 4.0 18:24:30 10° NNE 18:29:51 90° W 18:34:53 10° SSW
CZ-4B R/B 3.6 18:24:46 10° S 18:30:08 66° WSW 18:35:40 10° NNW
Cosmos 1980 Rocket 2.5 18:25:34 10° SW 18:31:10 68° NW 18:36:48 10° NNE
Ariane Rocket 4.5 18:36:15 18° ENE 18:37:32 19° NE 18:41:04 10° N
Cosmos 2292 Rocket 3.4 18:34:57 10° S 18:39:46 63° E 18:43:30 10° NNE
USA 215 3.2 18:36:54 11° ENE 18:43:11 87° SSE 18:49:45 10° WSW
IRS-1C Rocket 4.2 18:43:42 17° SE 18:47:45 58° ENE 18:52:55 10° N
Cosmos 1844 Rocket 2.6 18:43:07 10° NNW 18:48:51 80° ENE 18:52:59 19° SE
Landsat 5 3.8 18:50:01 10° NNE 18:54:23 48° E 18:58:41 10° S
Cosmos 2278 3.8 18:48:52 10° SW 18:54:34 77° WNW 19:00:17 10° NNE
Cosmos 1943 Rocket 4.2 18:51:31 10° NNW 18:54:40 15° NNE 18:57:28 11° NE
SL-16 R/B 2.2 18:49:46 10° SSW 18:55:20 62° ESE 19:00:57 10° NE
Cosmos 1092 Rocket 3.9 18:52:03 10° S 18:58:19 73° E 19:04:34 10° NNE
Cosmos 836 Rocket 4.4 18:54:52 10° NNW 19:00:14 83° ENE 19:03:34 23° SSE
Resurs 01 Rocket 2.3 19:01:19 33° ENE 19:01:47 34° ENE 19:05:49 10° N
Terra 3.9 19:03:49 12° NE 19:03:49 12° NE 19:05:29 10° NNE
Cosmos 2278 Rocket 3.4 18:59:09 10° NNW 19:03:55 27° NE 19:05:42 23° ENE
SJ-6B 2.6 19:02:07 27° SSE 19:04:05 89° NNW 19:07:55 10° NNW
H-2A R/B 2.7 19:07:11 42° ENE 19:07:11 42° ENE 19:10:50 10° N
Cosmos 1437 Rocket 3.1 19:03:36 10° SSW 19:07:18 63° WNW 19:11:03 10° N
Gbstr 26 Del rocket 4.5 19:00:06 10° WSW 19:07:48 74° SSE 19:12:38 27° E
Meteor 1-24 Rocket 3.9 19:03:59 10° NNW 19:09:15 66° W 19:14:34 10° S
Cosmos 1703 3.8 19:06:57 10° N 19:10:10 39° NE 19:10:10 39° NE
Resurs 1-3 3.5 19:11:26 36° SSE 19:13:13 78° ENE 19:17:37 10° NNW
Cosmos 2369 Rocket 4.5 19:10:33 10° NNW 19:13:23 14° N 19:16:13 10° NE
SL-4 R/B 4.5 19:12:13 10° W 19:15:18 18° SW 19:17:51 12° S
Cosmos 921 Rocket 3.8 19:11:18 10° N 19:15:29 36° ENE 19:15:35 36° ENE
MetOp-A 3.4 19:17:19 56° ENE 19:17:21 56° ENE 19:21:19 10° N
Okean-O 2.8 19:20:30 26° S 19:22:56 72° WSW 19:27:23 10° NNW
Cosmos 1844 3.8 19:17:47 10° NW 19:23:21 72° WSW 19:26:12 29° SSE
JB-3 4.3 19:20:05 10° NNE 19:23:49 64° ENE 19:23:49 64° ENE
CZ-4 R/B 3.5 19:20:52 10° SSW 19:24:29 28° W 19:28:06 10° NW
Cosmos 1486 Rocket 4.0 19:19:33 10° S 19:24:46 57° ESE 19:30:01 10° NNE
OBJECT-B 2.2 19:24:56 27° W 19:24:57 27° W 19:27:12 10° NW
IGS 5A 3.9 19:24:37 25° S 19:26:51 59° W 19:30:58 10° NNW
Cosmos 2266 Rocket 4.5 19:26:59 38° E 19:27:03 38° E 19:32:50 10° NNE
S3M 4.0 19:22:11 10° N 19:28:23 58° ENE 19:30:09 43° SE
DNEPR-1 R/B 4.0 19:24:05 10° SSW 19:28:49 58° SE 19:30:36 39° ENE
Meteor 1-22 Rocket 4.5 19:24:22 10° SSW 19:29:49 69° WNW 19:35:32 10° N
Cosmos 773 Rocket 3.9 19:24:30 10° NNW 19:29:50 72° ENE 19:31:00 53° SE
Meteor 1-21 Rocket 4.2 19:25:03 10° N 19:30:33 58° ENE 19:31:34 50° ESE
Spot 2 4.0 19:31:04 62° ENE 19:31:04 62° ENE 19:35:21 10° N
Cosmos 2333 Rocket 4.3 19:36:34 12° NE 19:36:34 12° NE 19:37:01 10° NE
Cosmos 1300 Rocket 3.4 19:30:15 34° S 19:32:05 87° ESE 19:36:30 10° NNE
SPOT 5 4.3 19:36:15 24° NE 19:36:15 24° NE 19:39:08 10° N
Cosmos 2360 Rocket 2.1 19:34:18 10° SSW 19:39:52 65° ESE 19:45:28 10° NE
Cosmos 1782 Rocket 4.4 19:36:21 10° SSW 19:40:34 49° WNW 19:44:51 10° N
Cosmos 1025 Rocket 4.3 19:37:52 10° NNW 19:41:54 39° W 19:44:51 17° SSW
Cosmos 158 Rocket 3.7 19:39:53 10° NNW 19:44:46 68° ENE 19:44:48 68° ENE
Okean O Rocket 4.4 19:45:32 10° SW 19:48:22 17° W 19:51:14 10° NW
Cosmos 1417 Rocket 4.3 19:42:40 10° N 19:48:51 90° W 19:51:03 43° S
Cosmos 968 Rocket 4.5 19:46:05 10° SW 19:51:08 46° NW 19:56:11 10° NNE
Lacrosse 4 Rocket 2.6 19:48:02 10° SW 19:50:17 32° SW 19:50:17 32° SW
USA 186 4.3 19:55:51 17° WSW 19:56:58 20° W 19:59:34 10° NW
ATLAS 2AS CENTAUR R/B 3.4 19:52:28 10° NW 19:59:29 45° NNE 20:01:35 36° ENE
Okean 2 Rocket 4.3 20:03:33 35° NNE 20:03:33 35° NNE 20:06:12 10° NNE
Cosmos 1553 Rocket 4.5 19:56:20 10° NNW 20:02:33 59° W 20:06:33 23° SSW
MOS 1 4.3 20:01:33 58° S 20:02:42 80° WSW 20:08:25 10° NNW
Cosmos 1536 Rocket 4.0 20:00:58 10° NNW 20:04:42 60° NW 20:04:42 60° NW
deb Chang Zheng 4 4.3 20:05:56 47° W 20:05:56 47° W 20:09:52 10° NNW
ERS-1 Rocket 4.1 20:07:14 33° NNE 20:07:14 33° NNE 20:10:36 10° N
SPOT 1/Viking Rocket 3.6 20:07:53 67° SW 20:08:19 72° WSW 20:13:29 10° NNW
Cosmos 2322 Rocket 2.6 20:03:21 10° SW 20:09:01 63° NW 20:14:43 10° NNE
NOSS 3-4 (A) 3.7 20:03:56 10° NW 20:10:42 88° SW 20:12:04 63° SE
NOSS 3-4 (C) 3.7 20:04:03 10° NW 20:10:48 88° SW 20:12:10 63° SE
SPOT 3 Rocket 4.0 20:15:04 52° NNE 20:15:04 52° NNE 20:19:12 10° N
Ariane Rocket 3.1 20:16:26 71° NNW 20:16:26 71° NNW 20:21:00 10° NNW
Cosmos 1980 Rocket 4.5 20:11:56 10° W 20:16:14 22° NNW 20:20:32 10° NNE
USA 215 3.5 20:24:15 47° NE 20:26:07 66° N 20:32:35 10° W
Aureole 1 Rocket 3.9 20:19:51 10° SSW 20:27:02 84° WNW 20:32:37 10° NNE
USA 281 3.3 20:27:40 61° ENE 20:27:46 61° NE 20:34:13 10° NNW
Meteor 1-16 Rocket 4.4 20:30:33 71° WSW 20:30:53 74° WNW 20:36:51 10° N
Cosmos 2315 Rocket 4.0 20:31:32 10° NNW 20:37:56 80° W 20:37:56 80° W
Resurs 01 Rocket 3.1 20:38:52 34° WNW 20:38:52 34° WNW 20:42:22 10° NNW
Spot 2 Rocket 4.5 20:41:06 41° N 20:41:06 41° N 20:44:26 10° NNW
SL-16 R/B 3.7 20:34:39 10° WSW 20:39:49 35° NW 20:45:01 10° NNE
Cosmos 1943 Rocket 3.3 20:34:58 10° NNW 20:38:59 33° NNE 20:38:59 33° NNE
Terra 3.4 20:42:42 29° N 20:42:42 29° N 20:45:09 10° N
Cosmos 2278 Rocket 2.7 20:43:02 10° NNW 20:47:32 57° NNW 20:47:32 57° NNW
Gbstr 26 Del rocket 4.4 20:47:16 10° W 20:55:06 80° SSW 20:55:06 80° SSW
Cosmos 2369 Rocket 3.8 20:54:46 10° NNW 20:58:48 25° NNE 20:58:48 25° NNE
Cosmos 2219 Rocket 4.3 21:05:13 17° NNE 21:05:13 17° NNE 21:06:32 10° NNE
SeaSat 1 4.4 21:04:57 22° N 21:04:57 22° N 21:07:32 10° NNW
SJ 16-02 4.3 21:16:00 10° N 21:16:00 10° N 21:16:06 10° N
Cosmos 2333 Rocket 3.7 21:18:31 30° N 21:18:31 30° N 21:21:32 10° NNE
Cosmos 2360 Rocket 3.7 21:19:11 10° WSW 21:24:17 33° NW 21:29:23 10° NNE
ATLAS 2AS CENTAUR R/B 3.4 21:43:52 10° NW 21:49:00 50° NW 21:49:00 50° NW
Cosmos 2322 Rocket 4.5 21:49:57 10° WNW 21:54:13 21° NNW 21:58:31 10° NNE
USA 215 4.3 22:11:36 39° WNW 22:11:36 39° WNW 22:15:28 10° WNW
Cosmos 1943 Rocket 4.3 22:18:42 10° NW 22:20:29 21° NW 22:20:29 21° NW
Cosmos 2369 Rocket 4.3 22:38:37 10° NNW 22:40:34 22° NNW 22:40:34 22° NNW
Cosmos 2219 Rocket 4.3 22:46:54 22° NNW 22:46:54 22° NNW 22:50:14 10° NNE
Cosmos 2237 Rocket 4.5 23:13:46 19° NNE 23:13:46 19° NNE 23:15:33 10° NNE
SL-16 R/B 4.3 23:57:33 22° NNE 23:57:33 22° NNE 23:59:36 10° NNE
